Siren, WI

2:27 AM CDT on July 22, 2017 (GMT -0500)
Burnett County

Weather History for KRZN - March, 2014

Change the Weather History Date:

Friday, March 21, 2014

  Actual Average Record
Temperature  
Mean Temperature 30 °F -  
Max Temperature 35 °F - - ()
Min Temperature 26 °F - - ()
Degree Days  
Heating Degree Days 34    
Moisture  
Dew Point 27 °F    
Average Humidity 82    
Maximum Humidity 96    
Minimum Humidity 63    
Precipitation  
Precipitation 0.13 in - - ()
Sea Level Pressure  
Sea Level Pressure 29.84 in    
Wind  
Wind Speed 7 mph (South)    
Max Wind Speed 20 mph    
Max Gust Speed 30 mph    
Visibility 8 miles    
Events Rain , Snow    
Averages and records for this station are not official NWS values.
T = Trace of Precipitation, MM = Missing Value Source: NWS Daily Summary

Daily Weather History Graph

Daily Weather History Graph

Search for Another Location

Airport or City:

Trip Planner

Search our weather history database for the weather conditions in past years. The results will help you decide how hot, cold, wet, or windy it might be!

Date:

Astronomy

Mar. 21, 2014 Rise Set
Actual Time 7:10 AM CDT 7:23 PM CDT
Civil Twilight 6:40 AM CDT 7:53 PM CDT
Nautical Twilight 6:05 AM CDT 8:28 PM CDT
Astronomical Twilight 5:30 AM CDT 9:04 PM CDT
Moon No Moon Rise 9:48 AM CDT (3/21)
Length of Visible Light 13h 12m
Length of Day
12h 12m
Waning Gibbous, 75% of the Moon is Illuminated
Mar 21
Waning Gibbous
Mar 23
Last Quarter
Mar 30
New
Apr 7
First Quarter
Apr 15
Full

Hourly Weather History & Observations

Time (CDT) Temp. Windchill Dew Point Humidity Pressure Visibility Wind Dir Wind Speed Gust Speed Precip Events Conditions
12:10 AM 29.8 °F 23.9 °F 24.4 °F 80% 29.91 in 10.0 mi SSE 5.8 mph - N/A   Clear
12:30 AM 30.2 °F 25.4 °F 24.3 °F 79% 29.91 in 10.0 mi SSE 4.6 mph - N/A   Scattered Clouds
12:50 AM 30.9 °F 26.2 °F 24.6 °F 77% 29.90 in 10.0 mi SE 4.6 mph - N/A   Scattered Clouds
1:10 AM 30.6 °F 25.8 °F 24.3 °F 77% 29.89 in 10.0 mi SSE 4.6 mph - N/A   Clear
1:30 AM 29.8 °F - 24.1 °F 79% 29.89 in 10.0 mi Calm Calm - N/A   Clear
1:50 AM 29.1 °F 23.0 °F 24.1 °F 81% 29.88 in 10.0 mi SSE 5.8 mph - N/A   Clear
2:10 AM 28.9 °F 22.8 °F 23.0 °F 78% 29.89 in 10.0 mi South 5.8 mph - N/A   Clear
2:30 AM 29.7 °F 24.7 °F 23.7 °F 79% 29.89 in 10.0 mi SSE 4.6 mph - N/A   Clear
2:50 AM 30.6 °F 24.7 °F 23.9 °F 76% 29.87 in 10.0 mi SE 5.8 mph - N/A   Clear
3:10 AM 30.6 °F 25.8 °F 23.7 °F 76% 29.87 in 10.0 mi SE 4.6 mph - N/A   Clear
3:30 AM 30.7 °F 27.3 °F 23.5 °F 75% 29.86 in 10.0 mi SE 3.5 mph - N/A   Clear
3:50 AM 30.4 °F - 23.5 °F 76% 29.86 in 10.0 mi Calm Calm - N/A   Scattered Clouds
4:10 AM 28.6 °F - 23.2 °F 80% 29.86 in 10.0 mi Calm Calm - N/A   Scattered Clouds
4:30 AM 26.6 °F - 22.3 °F 84% 29.86 in 10.0 mi Calm Calm - N/A   Clear
4:50 AM 28.2 °F - 23.5 °F 83% 29.86 in 10.0 mi Calm Calm - N/A   Scattered Clouds
5:10 AM 30.2 °F 26.7 °F 23.7 °F 77% 29.85 in 10.0 mi ESE 3.5 mph - N/A   Mostly Cloudy
5:30 AM 31.1 °F 27.7 °F 23.5 °F 74% 29.85 in 10.0 mi ESE 3.5 mph - N/A   Overcast
5:50 AM 31.5 °F 26.8 °F 23.5 °F 73% 29.84 in 10.0 mi SE 4.6 mph - N/A   Overcast
6:10 AM 32.0 °F 27.5 °F 23.7 °F 71% 29.84 in 10.0 mi South 4.6 mph - N/A   Overcast
6:30 AM 32.0 °F 28.7 °F 23.9 °F 72% 29.84 in 10.0 mi South 3.5 mph - N/A   Overcast
6:50 AM 32.5 °F 28.1 °F 24.1 °F 71% 29.84 in 10.0 mi SE 4.6 mph - N/A   Overcast
7:10 AM 33.4 °F 26.6 °F 23.9 °F 68% 29.83 in 10.0 mi SSE 8.1 mph - N/A   Overcast
7:30 AM 33.8 °F 25.8 °F 23.7 °F 67% 29.80 in 10.0 mi SE 10.4 mph 17.3 mph N/A   Overcast
7:50 AM 34.0 °F 26.6 °F 23.7 °F 66% 29.78 in 10.0 mi SSE 9.2 mph - N/A   Overcast
8:10 AM 34.3 °F 26.5 °F 23.7 °F 65% 29.77 in 10.0 mi SSE 10.4 mph - N/A   Overcast
8:30 AM 34.9 °F 27.1 °F 23.5 °F 63% 29.75 in 10.0 mi SSE 10.4 mph - N/A   Overcast
8:50 AM 34.9 °F 28.3 °F 23.9 °F 64% 29.73 in 10.0 mi SE 8.1 mph 16.1 mph N/A   Overcast
9:10 AM 35.4 °F 30.5 °F 23.9 °F 63% 29.76 in 10.0 mi SSW 5.8 mph - N/A   Overcast
9:30 AM 34.5 °F 25.3 °F 27.0 °F 74% 29.78 in 2.0 mi SSW 13.8 mph 19.6 mph N/A Snow Light Snow
9:50 AM 33.3 °F 27.1 °F 27.9 °F 81% 29.79 in 5.0 mi South 6.9 mph - N/A Snow Light Snow
10:10 AM 32.2 °F 25.8 °F 29.5 °F 90% 29.78 in 1.2 mi South 6.9 mph - N/A Snow Light Snow
10:30 AM 32.0 °F 23.6 °F 30.9 °F 96% 29.78 in 0.5 mi South 10.4 mph - N/A Snow Snow
10:50 AM 32.0 °F 24.8 °F 31.1 °F 96% 29.75 in 0.5 mi SE 8.1 mph - N/A Snow Snow
11:10 AM 32.0 °F 23.6 °F 31.1 °F 96% 29.73 in 1.5 mi SSE 10.4 mph 17.3 mph N/A Snow Light Snow
11:30 AM 32.2 °F 25.8 °F 31.1 °F 96% 29.73 in 1.0 mi SSE 6.9 mph - N/A Snow Light Snow
11:50 AM 32.4 °F 24.6 °F 31.5 °F 96% 29.72 in 7.0 mi SSE 9.2 mph - 0.01 in   Overcast
12:10 PM 32.9 °F 24.1 °F 31.1 °F 93% 29.72 in 5.0 mi South 11.5 mph - 0.01 in Snow Light Snow
12:30 PM 33.1 °F 25.5 °F 31.1 °F 92% 29.72 in 7.0 mi South 9.2 mph - 0.02 in Snow Light Snow
12:50 PM 33.3 °F 27.9 °F 31.1 °F 92% 29.71 in 10.0 mi South 5.8 mph - 0.04 in   Overcast
1:10 PM 33.8 °F 27.0 °F 30.7 °F 89% 29.71 in 10.0 mi South 8.1 mph - N/A   Overcast
1:30 PM 34.2 °F 29.0 °F 30.9 °F 88% 29.71 in 2.0 mi SSW 5.8 mph - N/A Snow Light Snow
1:50 PM 33.3 °F 30.2 °F 32.0 °F 95% 29.70 in 0.5 mi South 3.5 mph - 0.02 in Snow Light Snow
2:10 PM 33.4 °F 30.4 °F 32.4 °F 96% 29.70 in 0.8 mi South 3.5 mph - 0.02 in Snow Light Snow
2:30 PM 33.6 °F - 32.5 °F 96% 29.70 in 1.0 mi Calm Calm - 0.03 in Snow Light Snow
2:50 PM 33.8 °F - 32.9 °F 96% 29.70 in 2.5 mi Calm Calm - 0.03 in Rain Light Rain
3:10 PM 34.3 °F - 33.3 °F 96% 29.71 in 2.5 mi Calm Calm - 0.01 in Rain Light Rain
3:30 PM 35.4 °F 29.0 °F 34.0 °F 94% 29.72 in 4.0 mi WNW 8.1 mph - 0.01 in   Drizzle
3:50 PM 35.1 °F 27.9 °F 33.3 °F 93% 29.72 in 3.0 mi West 9.2 mph - 0.02 in Rain Rain
4:10 PM 34.7 °F 26.4 °F 33.3 °F 94% 29.74 in 3.0 mi WNW 11.5 mph - N/A Rain Light Rain
4:30 PM 35.2 °F 27.1 °F 33.4 °F 93% 29.75 in 5.0 mi NW 11.5 mph 18.4 mph 0.01 in Rain Light Rain
4:50 PM 35.6 °F 28.0 °F 33.3 °F 91% 29.76 in 7.0 mi NNW 10.4 mph 21.9 mph 0.01 in Rain Light Rain
5:10 PM 35.6 °F 28.6 °F 33.6 °F 92% 29.78 in 7.0 mi NNW 9.2 mph - N/A Rain Light Rain
5:30 PM 35.6 °F 25.9 °F 32.2 °F 87% 29.79 in 10.0 mi NW 16.1 mph 23.0 mph N/A Rain Light Rain
5:50 PM 35.6 °F 27.5 °F 31.8 °F 86% 29.81 in 10.0 mi NNW 11.5 mph 23.0 mph N/A   Overcast
6:10 PM 35.6 °F 27.1 °F 31.1 °F 84% 29.83 in 10.0 mi NNW 12.7 mph 23.0 mph N/A   Overcast
6:30 PM 35.1 °F 25.2 °F 31.1 °F 85% 29.85 in 10.0 mi North 16.1 mph 20.7 mph N/A   Overcast
6:50 PM 34.7 °F 26.4 °F 30.7 °F 85% 29.87 in 10.0 mi NNW 11.5 mph - N/A   Overcast
7:10 PM 33.8 °F 24.3 °F 29.3 °F 84% 29.89 in 10.0 mi NW 13.8 mph 25.3 mph N/A   Overcast
7:30 PM 32.9 °F 21.6 °F 29.3 °F 87% 29.90 in 10.0 mi NNW 18.4 mph 26.5 mph N/A   Overcast
7:50 PM 32.4 °F 22.1 °F 29.1 °F 88% 29.92 in 10.0 mi NNW 15.0 mph 29.9 mph N/A   Overcast
8:10 PM 32.2 °F 21.4 °F 28.4 °F 86% 29.93 in 10.0 mi NNW 16.1 mph 24.2 mph N/A   Overcast
8:30 PM 32.0 °F 20.1 °F 28.0 °F 85% 29.95 in 10.0 mi NNW 19.6 mph 29.9 mph N/A   Overcast
8:50 PM 32.0 °F 20.5 °F 26.8 °F 81% 29.96 in 10.0 mi NNW 18.4 mph 27.6 mph N/A   Overcast
9:10 PM 31.6 °F 20.4 °F 26.2 °F 80% 29.98 in 10.0 mi NNW 17.3 mph 25.3 mph N/A   Overcast
9:30 PM 31.1 °F 22.4 °F 25.7 °F 80% 30.00 in 10.0 mi NNW 10.4 mph 25.3 mph N/A   Overcast
9:50 PM 30.2 °F 17.8 °F 25.3 °F 82% 30.01 in 10.0 mi NNW 19.6 mph 24.2 mph N/A   Overcast
10:10 PM 30.0 °F 19.5 °F 24.4 °F 80% 30.02 in 10.0 mi NNW 13.8 mph 26.5 mph N/A   Overcast
10:30 PM 29.3 °F 17.7 °F 23.4 °F 78% 30.03 in 10.0 mi NNW 16.1 mph 23.0 mph N/A   Overcast
10:50 PM 28.4 °F 15.4 °F 21.9 °F 77% 30.04 in 10.0 mi NNW 19.6 mph 27.6 mph N/A   Overcast
11:10 PM 27.5 °F 15.9 °F 21.0 °F 77% 30.05 in 10.0 mi NNW 15.0 mph 23.0 mph N/A   Overcast
11:30 PM 26.6 °F 14.7 °F 19.9 °F 76% 30.07 in 10.0 mi NNW 15.0 mph 20.7 mph N/A   Overcast
11:50 PM 26.2 °F 13.8 °F 19.6 °F 76% 30.08 in 10.0 mi NNW 16.1 mph 19.6 mph N/A   Overcast